Year,Month,Day,Hour,Minute,Value (Times are PST for temperature in C)
2016,03,28,00,00,2.10
2016,03,28,00,01,2.10
2016,03,28,00,02,2.10
2016,03,28,00,03,2.10
2016,03,28,00,04,2.10
2016,03,28,00,05,2.10
2016,03,28,00,06,2.10
2016,03,28,00,07,2.00
2016,03,28,00,08,2.00
2016,03,28,00,09,2.00
2016,03,28,00,10,2.00
2016,03,28,00,11,2.00
2016,03,28,00,12,2.00
2016,03,28,00,13,2.00
2016,03,28,00,14,2.00
2016,03,28,00,15,2.00
2016,03,28,00,16,2.00
2016,03,28,00,17,2.00
2016,03,28,00,18,2.00
2016,03,28,00,19,2.00
2016,03,28,00,20,2.00
2016,03,28,00,21,1.90
2016,03,28,00,22,1.90
2016,03,28,00,23,1.90
2016,03,28,00,24,1.90
2016,03,28,00,25,1.90
2016,03,28,00,26,1.90
2016,03,28,00,27,1.90
2016,03,28,00,28,1.90
2016,03,28,00,29,1.90
2016,03,28,00,30,1.90
2016,03,28,00,31,1.90
2016,03,28,00,32,1.90
2016,03,28,00,33,2.00
2016,03,28,00,34,2.00
2016,03,28,00,35,2.00
2016,03,28,00,36,2.00
2016,03,28,00,37,2.00
2016,03,28,00,38,2.10
2016,03,28,00,39,2.00
2016,03,28,00,40,2.00
2016,03,28,00,41,2.00
2016,03,28,00,42,2.00
2016,03,28,00,43,2.00
2016,03,28,00,44,2.00
2016,03,28,00,45,2.00
2016,03,28,00,46,2.00
2016,03,28,00,47,2.00
2016,03,28,00,48,2.00
2016,03,28,00,49,2.00
2016,03,28,00,50,1.90
2016,03,28,00,51,1.90
2016,03,28,00,52,1.90
2016,03,28,00,53,1.90
2016,03,28,00,54,1.90
2016,03,28,00,55,1.90
2016,03,28,00,56,1.90
2016,03,28,00,57,1.90
2016,03,28,00,58,1.90
2016,03,28,00,59,1.80
2016,03,28,01,00,1.80
2016,03,28,01,01,1.80
2016,03,28,01,02,1.80
2016,03,28,01,03,1.80
2016,03,28,01,04,1.80
2016,03,28,01,05,1.80
2016,03,28,01,06,1.80
2016,03,28,01,07,1.80
2016,03,28,01,08,1.80
2016,03,28,01,09,1.80
2016,03,28,01,10,1.80
2016,03,28,01,11,1.80
2016,03,28,01,12,1.80
2016,03,28,01,13,1.80
2016,03,28,01,14,1.80
2016,03,28,01,15,1.80
2016,03,28,01,16,1.70
2016,03,28,01,17,1.70
2016,03,28,01,18,1.70
2016,03,28,01,19,1.70
2016,03,28,01,20,1.70
2016,03,28,01,21,1.60
2016,03,28,01,22,1.60
2016,03,28,01,23,1.60
2016,03,28,01,24,1.50
2016,03,28,01,25,1.50
2016,03,28,01,26,1.40
2016,03,28,01,27,1.40
2016,03,28,01,28,1.40
2016,03,28,01,29,1.40
2016,03,28,01,30,1.40
2016,03,28,01,31,1.30
2016,03,28,01,32,1.30
2016,03,28,01,33,1.30
2016,03,28,01,34,1.30
2016,03,28,01,35,1.30
2016,03,28,01,36,1.30
2016,03,28,01,37,1.30
2016,03,28,01,38,1.30
2016,03,28,01,39,1.30
2016,03,28,01,40,1.30
2016,03,28,01,41,1.30
2016,03,28,01,42,1.30
2016,03,28,01,43,1.30
2016,03,28,01,44,1.30
2016,03,28,01,45,1.30
2016,03,28,01,46,1.20
2016,03,28,01,47,1.20
2016,03,28,01,48,1.20
2016,03,28,01,49,1.20
2016,03,28,01,50,1.20
2016,03,28,01,51,1.20
2016,03,28,01,52,1.20
2016,03,28,01,53,1.20
2016,03,28,01,54,1.20
2016,03,28,01,55,1.20
2016,03,28,01,56,1.20
2016,03,28,01,57,1.20
2016,03,28,01,58,1.20
2016,03,28,01,59,1.20
2016,03,28,02,00,1.20
2016,03,28,02,01,1.20
2016,03,28,02,02,1.20
2016,03,28,02,03,1.20
2016,03,28,02,04,1.20
2016,03,28,02,05,1.20
2016,03,28,02,06,1.20
2016,03,28,02,07,1.10
2016,03,28,02,08,1.10
2016,03,28,02,09,1.10
2016,03,28,02,10,1.10
2016,03,28,02,11,1.10
2016,03,28,02,12,1.10
2016,03,28,02,13,1.10
2016,03,28,02,14,1.10
2016,03,28,02,15,1.00
2016,03,28,02,16,1.00
2016,03,28,02,17,1.00
2016,03,28,02,18,1.00
2016,03,28,02,19,1.00
2016,03,28,02,20,1.00
2016,03,28,02,21,1.00
2016,03,28,02,22,0.90
2016,03,28,02,23,0.90
2016,03,28,02,24,0.90
2016,03,28,02,25,0.90
2016,03,28,02,26,0.90
2016,03,28,02,27,0.90
2016,03,28,02,28,0.90
2016,03,28,02,29,0.90
2016,03,28,02,30,0.80
2016,03,28,02,31,0.80
2016,03,28,02,32,0.80
2016,03,28,02,33,0.80
2016,03,28,02,34,0.80
2016,03,28,02,35,0.80
2016,03,28,02,36,0.80
2016,03,28,02,37,0.80
2016,03,28,02,38,0.70
2016,03,28,02,39,0.70
2016,03,28,02,40,0.70
2016,03,28,02,41,0.70
2016,03,28,02,42,0.70
2016,03,28,02,43,0.70
2016,03,28,02,44,0.70
2016,03,28,02,45,0.70
2016,03,28,02,46,0.70
2016,03,28,02,47,0.70
2016,03,28,02,48,0.70
2016,03,28,02,49,0.70
2016,03,28,02,50,0.60
2016,03,28,02,51,0.60
2016,03,28,02,52,0.60
2016,03,28,02,53,0.60
2016,03,28,02,54,0.60
2016,03,28,02,55,0.60
2016,03,28,02,56,0.60
2016,03,28,02,57,0.60
2016,03,28,02,58,0.60
2016,03,28,02,59,0.50
2016,03,28,03,00,0.50
2016,03,28,03,01,0.50
2016,03,28,03,02,0.50
2016,03,28,03,03,0.40
2016,03,28,03,04,0.40
2016,03,28,03,05,0.40
2016,03,28,03,06,0.40
2016,03,28,03,07,0.40
2016,03,28,03,08,0.40
2016,03,28,03,09,0.50
2016,03,28,03,10,0.50
2016,03,28,03,11,0.50
2016,03,28,03,12,0.50
2016,03,28,03,13,0.50
2016,03,28,03,14,0.50
2016,03,28,03,15,0.50
2016,03,28,03,16,0.50
2016,03,28,03,17,0.50
2016,03,28,03,18,0.50
2016,03,28,03,19,0.50
2016,03,28,03,20,0.50
2016,03,28,03,21,0.50
2016,03,28,03,22,0.40
2016,03,28,03,23,0.40
2016,03,28,03,24,0.40
2016,03,28,03,25,0.40
2016,03,28,03,26,0.40
2016,03,28,03,27,0.40
2016,03,28,03,28,0.40
2016,03,28,03,29,0.40
2016,03,28,03,30,0.40
2016,03,28,03,31,0.40
2016,03,28,03,32,0.40
2016,03,28,03,33,0.40
2016,03,28,03,34,0.40
2016,03,28,03,35,0.40
2016,03,28,03,36,0.40
2016,03,28,03,37,0.40
2016,03,28,03,38,0.40
2016,03,28,03,39,0.30
2016,03,28,03,40,0.30
2016,03,28,03,41,0.30
2016,03,28,03,42,0.30
2016,03,28,03,43,0.30
2016,03,28,03,44,0.30
2016,03,28,03,45,0.30
2016,03,28,03,46,0.20
2016,03,28,03,47,0.20
2016,03,28,03,48,0.20
2016,03,28,03,49,0.20
2016,03,28,03,50,0.20
2016,03,28,03,51,0.20
2016,03,28,03,52,0.10
2016,03,28,03,53,0.10
2016,03,28,03,54,0.10
2016,03,28,03,55,0.10
2016,03,28,03,56,0.10
2016,03,28,03,57,0.10
2016,03,28,03,58,0.10
2016,03,28,03,59,0.00
2016,03,28,04,00,0.00
2016,03,28,04,01,0.00
2016,03,28,04,02,0.00
2016,03,28,04,03,0.00
2016,03,28,04,04,0.00
2016,03,28,04,05,-0.10
2016,03,28,04,06,-0.10
2016,03,28,04,07,-0.10
2016,03,28,04,08,-0.10
2016,03,28,04,09,-0.10
2016,03,28,04,10,-0.20
2016,03,28,04,11,-0.20
2016,03,28,04,12,-0.20
2016,03,28,04,13,-0.20
2016,03,28,04,14,-0.20
2016,03,28,04,15,-0.20
2016,03,28,04,16,-0.20
2016,03,28,04,17,-0.20
2016,03,28,04,18,-0.20
2016,03,28,04,19,-0.20
2016,03,28,04,20,-0.20
2016,03,28,04,21,-0.20
2016,03,28,04,22,-0.20
2016,03,28,04,23,-0.30
2016,03,28,04,24,-0.30
2016,03,28,04,25,-0.30
2016,03,28,04,26,-0.30
2016,03,28,04,27,-0.30
2016,03,28,04,28,-0.30
2016,03,28,04,29,-0.30
2016,03,28,04,30,-0.30
2016,03,28,04,31,-0.30
2016,03,28,04,32,-0.30
2016,03,28,04,33,-0.30
2016,03,28,04,34,-0.30
2016,03,28,04,35,-0.30
2016,03,28,04,36,-0.30
2016,03,28,04,37,-0.30
2016,03,28,04,38,-0.30
2016,03,28,04,39,-0.30
2016,03,28,04,40,-0.30
2016,03,28,04,41,-0.30
2016,03,28,04,42,-0.30
2016,03,28,04,43,-0.30
2016,03,28,04,44,-0.30
2016,03,28,04,45,-0.30
2016,03,28,04,46,-0.40
2016,03,28,04,47,-0.40
2016,03,28,04,48,-0.40
2016,03,28,04,49,-0.40
2016,03,28,04,50,-0.40
2016,03,28,04,51,-0.40
2016,03,28,04,52,-0.40
2016,03,28,04,53,-0.50
2016,03,28,04,54,-0.50
2016,03,28,04,55,-0.50
2016,03,28,04,56,-0.50
2016,03,28,04,57,-0.50
2016,03,28,04,58,-0.50
2016,03,28,04,59,-0.50
2016,03,28,05,00,-0.60
2016,03,28,05,01,-0.60
2016,03,28,05,02,-0.60
2016,03,28,05,03,-0.60
2016,03,28,05,04,-0.60
2016,03,28,05,05,-0.60
2016,03,28,05,06,-0.60
2016,03,28,05,07,-0.60
2016,03,28,05,08,-0.60
2016,03,28,05,09,-0.70
2016,03,28,05,10,-0.70
2016,03,28,05,11,-0.70
2016,03,28,05,12,-0.70
2016,03,28,05,13,-0.70
2016,03,28,05,14,-0.70
2016,03,28,05,15,-0.70
2016,03,28,05,16,-0.70
2016,03,28,05,17,-0.70
2016,03,28,05,18,-0.70
2016,03,28,05,19,-0.70
2016,03,28,05,20,-0.70
2016,03,28,05,21,-0.70
2016,03,28,05,22,-0.70
2016,03,28,05,23,-0.60
2016,03,28,05,24,-0.60
2016,03,28,05,25,-0.60
2016,03,28,05,26,-0.60
2016,03,28,05,27,-0.60
2016,03,28,05,28,-0.60
2016,03,28,05,29,-0.60
2016,03,28,05,30,-0.60
2016,03,28,05,31,-0.60
2016,03,28,05,32,-0.60
2016,03,28,05,33,-0.60
2016,03,28,05,34,-0.60
2016,03,28,05,35,-0.60
2016,03,28,05,36,-0.60
2016,03,28,05,37,-0.60
2016,03,28,05,38,-0.60
2016,03,28,05,39,-0.60
2016,03,28,05,40,-0.60
2016,03,28,05,41,-0.60
2016,03,28,05,42,-0.60
2016,03,28,05,43,-0.60
2016,03,28,05,44,-0.60
2016,03,28,05,45,-0.60
2016,03,28,05,46,-0.60
2016,03,28,05,47,-0.70
2016,03,28,05,48,-0.70
2016,03,28,05,49,-0.70
2016,03,28,05,50,-0.70
2016,03,28,05,51,-0.70
2016,03,28,05,52,-0.70
2016,03,28,05,53,-0.70
2016,03,28,05,54,-0.70
2016,03,28,05,55,-0.70
2016,03,28,05,56,-0.70
2016,03,28,05,57,-0.70
2016,03,28,05,58,-0.70
2016,03,28,05,59,-0.70
2016,03,28,06,00,-0.80
2016,03,28,06,01,-0.80
2016,03,28,06,02,-0.80
2016,03,28,06,03,-0.80
2016,03,28,06,04,-0.80
2016,03,28,06,05,-0.80
2016,03,28,06,06,-0.80
2016,03,28,06,07,-0.80
2016,03,28,06,08,-0.80
2016,03,28,06,09,-0.80
2016,03,28,06,10,-0.80
2016,03,28,06,11,-0.80
2016,03,28,06,12,-0.90
2016,03,28,06,13,-0.90
2016,03,28,06,14,-0.90
2016,03,28,06,15,-0.90
2016,03,28,06,16,-0.90
2016,03,28,06,17,-0.90
2016,03,28,06,18,-0.90
2016,03,28,06,19,-0.90
2016,03,28,06,20,-0.90
2016,03,28,06,21,-0.90
2016,03,28,06,22,-0.90
2016,03,28,06,23,-0.90
2016,03,28,06,24,-0.90
2016,03,28,06,25,-0.90
2016,03,28,06,26,-0.90
2016,03,28,06,27,-0.90
2016,03,28,06,28,-0.90
2016,03,28,06,29,-0.90
2016,03,28,06,30,-0.90
2016,03,28,06,31,-1.00
2016,03,28,06,32,-1.00
2016,03,28,06,33,-1.00
2016,03,28,06,34,-1.00
2016,03,28,06,35,-1.00
2016,03,28,06,36,-1.00
2016,03,28,06,37,-1.00
2016,03,28,06,38,-1.00
2016,03,28,06,39,-1.00
2016,03,28,06,40,-1.00
2016,03,28,06,41,-1.00
2016,03,28,06,42,-1.00
2016,03,28,06,43,-1.00
2016,03,28,06,44,-1.00
2016,03,28,06,45,-0.90
2016,03,28,06,46,-0.90
2016,03,28,06,47,-0.90
2016,03,28,06,48,-0.90
2016,03,28,06,49,-0.90
2016,03,28,06,50,-0.90
2016,03,28,06,51,-0.90
2016,03,28,06,52,-0.90
2016,03,28,06,53,-0.90
2016,03,28,06,54,-0.90
2016,03,28,06,55,-0.90
2016,03,28,06,56,-0.90
2016,03,28,06,57,-0.90
2016,03,28,06,58,-0.90
2016,03,28,06,59,-0.90
2016,03,28,07,00,-0.90
2016,03,28,07,01,-0.90
2016,03,28,07,02,-0.90
2016,03,28,07,03,-1.00
2016,03,28,07,04,-0.90
2016,03,28,07,05,-1.00
2016,03,28,07,06,-1.00
2016,03,28,07,07,-1.00
2016,03,28,07,08,-1.00
2016,03,28,07,09,-1.00
2016,03,28,07,10,-1.00
2016,03,28,07,11,-1.00
2016,03,28,07,12,-1.00
2016,03,28,07,13,-1.00
2016,03,28,07,14,-1.00
2016,03,28,07,15,-1.00
2016,03,28,07,16,-1.00
2016,03,28,07,17,-1.00
2016,03,28,07,18,-1.00
2016,03,28,07,19,-1.00
2016,03,28,07,20,-1.00
2016,03,28,07,21,-0.90
2016,03,28,07,22,-0.90
2016,03,28,07,23,-0.90
2016,03,28,07,24,-1.00
2016,03,28,07,25,-1.00
2016,03,28,07,26,-1.00
2016,03,28,07,27,-1.00
2016,03,28,07,28,-1.00
2016,03,28,07,29,-1.00
2016,03,28,07,30,-1.00
2016,03,28,07,31,-1.00
2016,03,28,07,32,-1.00
2016,03,28,07,33,-1.00
2016,03,28,07,34,-1.00
2016,03,28,07,35,-1.00
2016,03,28,07,36,-1.00
2016,03,28,07,37,-1.00
2016,03,28,07,38,-1.00
2016,03,28,07,39,-1.00
2016,03,28,07,40,-1.00
2016,03,28,07,41,-1.00
2016,03,28,07,42,-1.00
2016,03,28,07,43,-1.00
2016,03,28,07,44,-1.00
2016,03,28,07,45,-1.00
2016,03,28,07,46,-1.00
2016,03,28,07,47,-1.00
2016,03,28,07,48,-1.00
2016,03,28,07,49,-1.00
2016,03,28,07,50,-1.00
2016,03,28,07,51,-0.90
2016,03,28,07,52,-0.90
2016,03,28,07,53,-0.90
2016,03,28,07,54,-0.90
2016,03,28,07,55,-0.90
2016,03,28,07,56,-0.90
2016,03,28,07,57,-0.90
2016,03,28,07,58,-0.90
2016,03,28,07,59,-0.90
2016,03,28,08,00,-0.90
2016,03,28,08,01,-0.80
2016,03,28,08,02,-0.80
2016,03,28,08,03,-0.80
2016,03,28,08,04,-0.80
2016,03,28,08,05,-0.80
2016,03,28,08,06,-0.80
2016,03,28,08,07,-0.80
2016,03,28,08,08,-0.80
2016,03,28,08,09,-0.80
2016,03,28,08,10,-0.80
2016,03,28,08,11,-0.90
2016,03,28,08,12,-0.80
2016,03,28,08,13,-0.80
2016,03,28,08,14,-0.80
2016,03,28,08,15,-0.80
2016,03,28,08,16,-0.80
2016,03,28,08,17,-0.80
2016,03,28,08,18,-0.70
2016,03,28,08,19,-0.70
2016,03,28,08,20,-0.70
2016,03,28,08,21,-0.70
2016,03,28,08,22,-0.80
2016,03,28,08,23,-0.80
2016,03,28,08,24,-0.80
2016,03,28,08,25,-0.80
2016,03,28,08,26,-0.80
2016,03,28,08,27,-0.80
2016,03,28,08,28,-0.80
2016,03,28,08,29,-0.80
2016,03,28,08,30,-0.70
2016,03,28,08,31,-0.70
2016,03,28,08,32,-0.70
2016,03,28,08,33,-0.70
2016,03,28,08,34,-0.60
2016,03,28,08,35,-0.60
2016,03,28,08,36,-0.60
2016,03,28,08,37,-0.50
2016,03,28,08,38,-0.50
2016,03,28,08,39,-0.40
2016,03,28,08,40,-0.40
2016,03,28,08,41,-0.30
2016,03,28,08,42,-0.30
2016,03,28,08,43,-0.20
2016,03,28,08,44,-0.10
2016,03,28,08,45,-0.10
2016,03,28,08,46,-0.10
2016,03,28,08,47,0.00
2016,03,28,08,48,0.00
2016,03,28,08,49,0.00
2016,03,28,08,50,0.00
2016,03,28,08,51,0.10
2016,03,28,08,52,0.10
2016,03,28,08,53,0.10
2016,03,28,08,54,0.20
2016,03,28,08,55,0.30
2016,03,28,08,56,0.40
2016,03,28,08,57,0.50
2016,03,28,08,58,0.60
2016,03,28,08,59,0.70
2016,03,28,09,00,0.80
2016,03,28,09,01,0.80
2016,03,28,09,02,0.90
2016,03,28,09,03,0.90
2016,03,28,09,04,0.90
2016,03,28,09,05,1.00
2016,03,28,09,06,1.00
2016,03,28,09,07,1.10
2016,03,28,09,08,1.10
2016,03,28,09,09,1.20
2016,03,28,09,10,1.30
2016,03,28,09,11,1.30
2016,03,28,09,12,1.40
2016,03,28,09,13,1.50
2016,03,28,09,14,1.60
2016,03,28,09,15,1.60
2016,03,28,09,16,1.70
2016,03,28,09,17,1.70
2016,03,28,09,18,1.80
2016,03,28,09,19,1.90
2016,03,28,09,20,1.90
2016,03,28,09,21,1.90
2016,03,28,09,22,1.90
2016,03,28,09,23,2.00
2016,03,28,09,24,2.00
2016,03,28,09,25,2.00
2016,03,28,09,26,2.00
2016,03,28,09,27,1.90
2016,03,28,09,28,1.90
2016,03,28,09,29,1.90
2016,03,28,09,30,1.90
2016,03,28,09,31,2.00
2016,03,28,09,32,2.00
2016,03,28,09,33,2.10
2016,03,28,09,34,2.20
2016,03,28,09,35,2.30
2016,03,28,09,36,2.30
2016,03,28,09,37,2.40
2016,03,28,09,38,2.50
2016,03,28,09,39,2.60
2016,03,28,09,40,2.70
2016,03,28,09,41,2.70
2016,03,28,09,42,2.80
2016,03,28,09,43,2.80
2016,03,28,09,44,2.90
2016,03,28,09,45,2.90
2016,03,28,09,46,2.90
2016,03,28,09,47,2.90
2016,03,28,09,48,2.80
2016,03,28,09,49,2.80
2016,03,28,09,50,2.80
2016,03,28,09,51,2.80
2016,03,28,09,52,2.90
2016,03,28,09,53,2.90
2016,03,28,09,54,3.00
2016,03,28,09,55,3.00
2016,03,28,09,56,3.10
2016,03,28,09,57,3.10
2016,03,28,09,58,3.20
2016,03,28,09,59,3.30
2016,03,28,10,00,3.30
2016,03,28,10,01,3.40
2016,03,28,10,02,3.50
2016,03,28,10,03,3.50
2016,03,28,10,04,3.60
2016,03,28,10,05,3.70
2016,03,28,10,06,3.80
2016,03,28,10,07,3.90
2016,03,28,10,08,4.00
2016,03,28,10,09,4.10
2016,03,28,10,10,4.20
2016,03,28,10,11,4.20
2016,03,28,10,12,4.30
2016,03,28,10,13,4.30
2016,03,28,10,14,4.40
2016,03,28,10,15,4.40
2016,03,28,10,16,4.50
2016,03,28,10,17,4.50
2016,03,28,10,18,4.60
2016,03,28,10,19,4.60
2016,03,28,10,20,4.70
2016,03,28,10,21,4.70
2016,03,28,10,22,4.80
2016,03,28,10,23,4.80
2016,03,28,10,24,4.90
2016,03,28,10,25,5.00
2016,03,28,10,26,5.10
2016,03,28,10,27,5.20
2016,03,28,10,28,5.30
2016,03,28,10,29,5.30
2016,03,28,10,30,5.30
2016,03,28,10,31,5.30
2016,03,28,10,32,5.40
2016,03,28,10,33,5.50
2016,03,28,10,34,5.50
2016,03,28,10,35,5.60
2016,03,28,10,36,5.70
2016,03,28,10,37,5.70
2016,03,28,10,38,5.80
2016,03,28,10,39,5.90
2016,03,28,10,40,5.90
2016,03,28,10,41,6.00
2016,03,28,10,42,6.10
2016,03,28,10,43,6.20
2016,03,28,10,44,6.30
2016,03,28,10,45,6.50
2016,03,28,10,46,6.60
2016,03,28,10,47,6.70
2016,03,28,10,48,6.80
2016,03,28,10,49,6.80
2016,03,28,10,50,6.90
2016,03,28,10,51,6.90
2016,03,28,10,52,6.90
2016,03,28,10,53,7.00
2016,03,28,10,54,7.00
2016,03,28,10,55,7.00
2016,03,28,10,56,7.10
2016,03,28,10,57,7.20
2016,03,28,10,58,7.30
2016,03,28,10,59,7.30
2016,03,28,11,00,7.30
2016,03,28,11,01,7.40
2016,03,28,11,02,7.40
2016,03,28,11,03,7.50
2016,03,28,11,04,7.60
2016,03,28,11,05,7.70
2016,03,28,11,06,7.80
2016,03,28,11,07,7.80
2016,03,28,11,08,7.80
2016,03,28,11,09,7.80
2016,03,28,11,10,7.80
2016,03,28,11,11,7.90
2016,03,28,11,12,7.90
2016,03,28,11,13,8.00
2016,03,28,11,14,8.00
2016,03,28,11,15,8.10
2016,03,28,11,16,8.20
2016,03,28,11,17,8.30
2016,03,28,11,18,8.40
2016,03,28,11,19,8.40
2016,03,28,11,20,8.40
2016,03,28,11,21,8.50
2016,03,28,11,22,8.50
2016,03,28,11,23,8.60
2016,03,28,11,24,8.70
2016,03,28,11,25,8.70
2016,03,28,11,26,8.70
2016,03,28,11,27,8.80
2016,03,28,11,28,8.80
2016,03,28,11,29,8.80
2016,03,28,11,30,8.80
2016,03,28,11,31,8.90
2016,03,28,11,32,8.90
2016,03,28,11,33,8.90
2016,03,28,11,34,8.90
2016,03,28,11,35,8.90
2016,03,28,11,36,9.00
2016,03,28,11,37,9.00
2016,03,28,11,38,9.10
2016,03,28,11,39,9.20
2016,03,28,11,40,9.30
2016,03,28,11,41,9.30
2016,03,28,11,42,9.30
2016,03,28,11,43,9.30
2016,03,28,11,44,9.40
2016,03,28,11,45,9.50
2016,03,28,11,46,9.60
2016,03,28,11,47,9.70
2016,03,28,11,48,9.70
2016,03,28,11,49,9.80
2016,03,28,11,50,9.80
2016,03,28,11,51,9.80
2016,03,28,11,52,9.80
2016,03,28,11,53,9.80
2016,03,28,11,54,9.80
2016,03,28,11,55,9.90
2016,03,28,11,56,10.00
2016,03,28,11,57,10.10
2016,03,28,11,58,10.20
2016,03,28,11,59,10.30
2016,03,28,12,00,10.40
2016,03,28,12,01,10.40
2016,03,28,12,02,10.50
2016,03,28,12,03,10.50
2016,03,28,12,04,10.60
2016,03,28,12,05,10.60
2016,03,28,12,06,10.70
2016,03,28,12,07,10.70
2016,03,28,12,08,10.80
2016,03,28,12,09,10.90
2016,03,28,12,10,10.90
2016,03,28,12,11,10.90
2016,03,28,12,12,11.00
2016,03,28,12,13,11.10
2016,03,28,12,14,11.10
2016,03,28,12,15,11.20
2016,03,28,12,16,11.20
2016,03,28,12,17,11.30
2016,03,28,12,18,11.30
2016,03,28,12,19,11.40
2016,03,28,12,20,11.40
2016,03,28,12,21,11.50
2016,03,28,12,22,11.60
2016,03,28,12,23,11.60
2016,03,28,12,24,11.50
2016,03,28,12,25,11.40
2016,03,28,12,26,11.40
2016,03,28,12,27,11.40
2016,03,28,12,28,11.30
2016,03,28,12,29,11.40
2016,03,28,12,30,11.50
2016,03,28,12,31,11.50
2016,03,28,12,32,11.60
2016,03,28,12,33,11.70
2016,03,28,12,34,11.60
2016,03,28,12,35,11.60
2016,03,28,12,36,11.60
2016,03,28,12,37,11.60
2016,03,28,12,38,11.60
2016,03,28,12,39,11.70
2016,03,28,12,40,11.70
2016,03,28,12,41,11.70
2016,03,28,12,42,11.70
2016,03,28,12,43,11.70
2016,03,28,12,44,11.80
2016,03,28,12,45,11.80
2016,03,28,12,46,11.90
2016,03,28,12,47,11.90
2016,03,28,12,48,12.00
2016,03,28,12,49,12.00
2016,03,28,12,50,12.10
2016,03,28,12,51,12.10
2016,03,28,12,52,12.10
2016,03,28,12,53,12.10
2016,03,28,12,54,12.10
2016,03,28,12,55,12.10
2016,03,28,12,56,12.20
2016,03,28,12,57,12.20
2016,03,28,12,58,12.30
2016,03,28,12,59,12.30
2016,03,28,13,00,12.40
2016,03,28,13,01,12.40
2016,03,28,13,02,12.50
2016,03,28,13,03,12.50
2016,03,28,13,04,12.50
2016,03,28,13,05,12.60
2016,03,28,13,06,12.60
2016,03,28,13,07,12.60
2016,03,28,13,08,12.60
2016,03,28,13,09,12.70
2016,03,28,13,10,12.70
2016,03,28,13,11,12.80
2016,03,28,13,12,12.80
2016,03,28,13,13,12.80
2016,03,28,13,14,12.80
2016,03,28,13,15,12.80
2016,03,28,13,16,12.90
2016,03,28,13,17,13.00
2016,03,28,13,18,13.00
2016,03,28,13,19,13.00
2016,03,28,13,20,13.10
2016,03,28,13,21,13.20
2016,03,28,13,22,13.20
2016,03,28,13,23,13.20
2016,03,28,13,24,13.30
2016,03,28,13,25,13.30
2016,03,28,13,26,13.30
2016,03,28,13,27,13.20
2016,03,28,13,28,13.20
2016,03,28,13,29,13.10
2016,03,28,13,30,13.10
2016,03,28,13,31,13.10
2016,03,28,13,32,13.20
2016,03,28,13,33,13.30
2016,03,28,13,34,13.30
2016,03,28,13,35,13.40
2016,03,28,13,36,13.40
2016,03,28,13,37,13.40
2016,03,28,13,38,13.50
2016,03,28,13,39,13.50
2016,03,28,13,40,13.50
2016,03,28,13,41,13.60
2016,03,28,13,42,13.50
2016,03,28,13,43,13.50
2016,03,28,13,44,13.50
2016,03,28,13,45,13.50
2016,03,28,13,46,13.60
2016,03,28,13,47,13.60
2016,03,28,13,48,13.70
2016,03,28,13,49,13.80
2016,03,28,13,50,13.80
2016,03,28,13,51,13.90
2016,03,28,13,52,13.90
2016,03,28,13,53,13.90
2016,03,28,13,54,13.90
2016,03,28,13,55,14.00
2016,03,28,13,56,14.00
2016,03,28,13,57,14.00
2016,03,28,13,58,14.00
2016,03,28,13,59,14.10
2016,03,28,14,00,14.20
2016,03,28,14,01,14.30
2016,03,28,14,02,14.30
2016,03,28,14,03,14.30
2016,03,28,14,04,14.40
2016,03,28,14,05,14.40
2016,03,28,14,06,14.50
2016,03,28,14,07,14.60
2016,03,28,14,08,14.70
2016,03,28,14,09,14.70
2016,03,28,14,10,14.80
2016,03,28,14,11,14.70
2016,03,28,14,12,14.70
2016,03,28,14,13,14.70
2016,03,28,14,14,14.60
2016,03,28,14,15,14.60
2016,03,28,14,16,14.50
2016,03,28,14,17,14.60
2016,03,28,14,18,14.60
2016,03,28,14,19,14.60
2016,03,28,14,20,14.60
2016,03,28,14,21,14.70
2016,03,28,14,22,14.70
2016,03,28,14,23,14.70
2016,03,28,14,24,14.70
2016,03,28,14,25,14.80
2016,03,28,14,26,14.90
2016,03,28,14,27,15.00
2016,03,28,14,28,15.00
2016,03,28,14,29,15.00
2016,03,28,14,30,15.00
2016,03,28,14,31,14.90
2016,03,28,14,32,15.00
2016,03,28,14,33,15.00
2016,03,28,14,34,15.10
2016,03,28,14,35,15.20
2016,03,28,14,36,15.10
2016,03,28,14,37,15.00
2016,03,28,14,38,15.00
2016,03,28,14,39,15.00
2016,03,28,14,40,15.10
2016,03,28,14,41,15.10
2016,03,28,14,42,15.20
2016,03,28,14,43,15.30
2016,03,28,14,44,15.30
2016,03,28,14,45,15.20
2016,03,28,14,46,15.10
2016,03,28,14,47,15.00
2016,03,28,14,48,14.90
2016,03,28,14,49,14.90
2016,03,28,14,50,14.80
2016,03,28,14,51,14.90
2016,03,28,14,52,15.00
2016,03,28,14,53,15.10
2016,03,28,14,54,15.10
2016,03,28,14,55,15.20
2016,03,28,14,56,15.30
2016,03,28,14,57,15.30
2016,03,28,14,58,15.30
2016,03,28,14,59,15.20
2016,03,28,15,00,15.20
2016,03,28,15,01,15.20
2016,03,28,15,02,15.20
2016,03,28,15,03,15.20
2016,03,28,15,04,15.30
2016,03,28,15,05,15.30
2016,03,28,15,06,15.30
2016,03,28,15,07,15.20
2016,03,28,15,08,15.20
2016,03,28,15,09,15.20
2016,03,28,15,10,15.30
2016,03,28,15,11,15.30
2016,03,28,15,12,15.30
2016,03,28,15,13,15.20
2016,03,28,15,14,15.20
2016,03,28,15,15,15.20
2016,03,28,15,16,15.20
2016,03,28,15,17,15.20
2016,03,28,15,18,15.20
2016,03,28,15,19,15.20
2016,03,28,15,20,15.20
2016,03,28,15,21,15.20
2016,03,28,15,22,15.30
2016,03,28,15,23,15.40
2016,03,28,15,24,15.40
2016,03,28,15,25,15.40
2016,03,28,15,26,15.50
2016,03,28,15,27,15.50
2016,03,28,15,28,15.60
2016,03,28,15,29,15.60
2016,03,28,15,30,15.70
2016,03,28,15,31,15.70
2016,03,28,15,32,15.70
2016,03,28,15,33,15.70
2016,03,28,15,34,15.60
2016,03,28,15,35,15.60
2016,03,28,15,36,15.60
2016,03,28,15,37,15.50
2016,03,28,15,38,15.40
2016,03,28,15,39,15.30
2016,03,28,15,40,15.30
2016,03,28,15,41,15.30
2016,03,28,15,42,15.30
2016,03,28,15,43,15.20
2016,03,28,15,44,15.20
2016,03,28,15,45,15.30
2016,03,28,15,46,15.30
2016,03,28,15,47,15.30
2016,03,28,15,48,15.30
2016,03,28,15,49,15.30
2016,03,28,15,50,15.30
2016,03,28,15,51,15.30
2016,03,28,15,52,15.30
2016,03,28,15,53,15.40
2016,03,28,15,54,15.40
2016,03,28,15,55,15.50
2016,03,28,15,56,15.50
2016,03,28,15,57,15.60
2016,03,28,15,58,15.60
2016,03,28,15,59,15.60
2016,03,28,16,00,15.60
2016,03,28,16,01,15.60
2016,03,28,16,02,15.70
2016,03,28,16,03,15.70
2016,03,28,16,04,15.70
2016,03,28,16,05,15.70
2016,03,28,16,06,15.60
2016,03,28,16,07,15.70
2016,03,28,16,08,15.60
2016,03,28,16,09,15.60
2016,03,28,16,10,15.60
2016,03,28,16,11,15.60
2016,03,28,16,12,15.60
2016,03,28,16,13,15.60
2016,03,28,16,14,15.60
2016,03,28,16,15,15.50
2016,03,28,16,16,15.50
2016,03,28,16,17,15.50
2016,03,28,16,18,15.60
2016,03,28,16,19,15.50
2016,03,28,16,20,15.50
2016,03,28,16,21,15.50
2016,03,28,16,22,15.60
2016,03,28,16,23,15.70
2016,03,28,16,24,15.70
2016,03,28,16,25,15.70
2016,03,28,16,26,15.70
2016,03,28,16,27,15.60
2016,03,28,16,28,15.60
2016,03,28,16,29,15.60
2016,03,28,16,30,15.60
2016,03,28,16,31,15.70
2016,03,28,16,32,15.70
2016,03,28,16,33,15.60
2016,03,28,16,34,15.60
2016,03,28,16,35,15.60
2016,03,28,16,36,15.60
2016,03,28,16,37,15.60
2016,03,28,16,38,15.60
2016,03,28,16,39,15.70
2016,03,28,16,40,15.70
2016,03,28,16,41,15.80
2016,03,28,16,42,15.80
2016,03,28,16,43,15.80
2016,03,28,16,44,15.70
2016,03,28,16,45,15.70
2016,03,28,16,46,15.70
2016,03,28,16,47,15.70
2016,03,28,16,48,15.60
2016,03,28,16,49,15.60
2016,03,28,16,50,15.60
2016,03,28,16,51,15.70
2016,03,28,16,52,15.70
2016,03,28,16,53,15.70
2016,03,28,16,54,15.70
2016,03,28,16,55,15.70
2016,03,28,16,56,15.70
2016,03,28,16,57,15.60
2016,03,28,16,58,15.70
2016,03,28,16,59,15.70
2016,03,28,17,00,15.70
2016,03,28,17,01,15.70
2016,03,28,17,02,15.70
2016,03,28,17,03,15.70
2016,03,28,17,04,15.60
2016,03,28,17,05,15.50
2016,03,28,17,06,15.40
2016,03,28,17,07,15.40
2016,03,28,17,08,15.40
2016,03,28,17,09,15.40
2016,03,28,17,10,15.40
2016,03,28,17,11,15.50
2016,03,28,17,12,15.40
2016,03,28,17,13,15.40
2016,03,28,17,14,15.40
2016,03,28,17,15,15.40
2016,03,28,17,16,15.40
2016,03,28,17,17,15.50
2016,03,28,17,18,15.50
2016,03,28,17,19,15.40
2016,03,28,17,20,15.50
2016,03,28,17,21,15.50
2016,03,28,17,22,15.60
2016,03,28,17,23,15.60
2016,03,28,17,24,15.70
2016,03,28,17,25,15.70
2016,03,28,17,26,15.70
2016,03,28,17,27,15.60
2016,03,28,17,28,15.60
2016,03,28,17,29,15.60
2016,03,28,17,30,15.60
2016,03,28,17,31,15.50
2016,03,28,17,32,15.50
2016,03,28,17,33,15.50
2016,03,28,17,34,15.50
2016,03,28,17,35,15.50
2016,03,28,17,36,15.50
2016,03,28,17,37,15.40
2016,03,28,17,38,15.40